Location: Tr�vern
(48.0333°N, 4.6000°W)
Time: 19:14:21
(UTC+00:00)

Resurs 1-4 Rocket - Pass Details

Date: 14 July 2020
Orbit: 800 x 814 km, 98.6° (Epoch: 12 August)

Event Time Altitude Azimuth Distance (km) Brightness Sun altitude
Rises 03:02:02 0° 7° (N) 3,350 6.4 -11.9°
Reaches altitude 10° 03:04:34 10° 358° (N) 2,412 5.4 -11.6°
Maximum altitude 03:09:17 33° 296° (WNW) 1,331 3.1 -11.2°
Enters shadow 03:13:26 13° 237° (WSW) 2,202 3.8 -10.7°
